Location: Unspecified
(50.2830°N, 0.0000°E)
Time: 22:11:52
(UTC+00:00)

SHIYAN 20A DEB - Visible Passes

Search period start: 04 April 2026 00:00
Search period end: 14 April 2026 00:00
Orbit: 771 x 794 km, 60.0° (Epoch: 29 March)

Date Brightness Start Highest point End Pass type
(mag) Time Alt. Az. Time Alt. Az. Time Alt. Az.
4 Apr ? 00:34:55 10° WNW 00:39:35 29° N 00:44:16 10° ENE visible
4 Apr ? 02:19:47 10° NW 02:24:50 39° NNE 02:29:51 10° E visible
4 Apr ? 04:03:55 10° NW 04:09:17 75° SW 04:14:36 10° SE visible
4 Apr ? 20:31:27 10° SSW 20:36:34 44° SE 20:41:39 10° ENE visible
4 Apr ? 22:15:18 10° WSW 22:20:35 54° NNW 22:25:52 10° NE visible
5 Apr ? 00:00:54 10° WNW 00:05:37 30° N 00:10:19 10° NE visible
5 Apr ? 01:45:58 10° NW 01:50:55 36° NNE 01:55:49 10° E visible
5 Apr ? 03:30:08 10° NW 03:35:31 89° NE 03:40:53 10° SE visible
5 Apr ? 19:58:03 10° S 20:02:54 35° SE 20:07:45 10° ENE visible
5 Apr ? 21:41:23 10° WSW 21:46:45 64° NNW 21:52:06 10° NE visible
5 Apr ? 23:26:52 10° WNW 23:31:39 31° N 23:36:25 10° NE visible
6 Apr ? 01:12:07 10° NW 01:16:58 33° NNE 01:21:47 10° ENE visible
6 Apr ? 02:56:21 10° NW 03:01:44 74° NE 03:07:05 10° ESE visible
6 Apr ? 04:40:54 10° WNW 04:45:23 28° WSW 04:49:52 10° S visible
6 Apr ? 19:24:47 10° S 19:29:17 28° ESE 19:33:47 10° ENE visible
6 Apr ? 21:07:31 10° WSW 21:12:55 76° NW 21:18:20 10° NE visible
6 Apr ? 22:52:49 10° W 22:57:41 33° NNW 23:02:33 10° NE visible
7 Apr ? 00:38:14 10° NW 00:43:00 31° N 00:47:45 10° ENE visible
7 Apr ? 02:22:35 10° NW 02:27:55 62° NNE 02:33:13 10° ESE visible
7 Apr ? 04:06:55 10° WNW 04:11:46 36° SW 04:16:35 10° S visible
7 Apr ? 20:33:43 10° SW 20:39:09 89° SE 20:44:34 10° NE visible
7 Apr ? 22:18:47 10° W 22:23:45 36° NNW 22:28:42 10° NE visible
8 Apr ? 00:04:19 10° NW 00:09:01 30° N 00:13:43 10° ENE visible
8 Apr ? 01:48:48 10° NW 01:54:05 53° NNE 01:59:18 10° ESE visible
8 Apr ? 03:33:01 10° WNW 03:38:06 45° SW 03:43:10 10° SSE visible
8 Apr ? 20:00:00 10° SW 20:05:23 74° SE 20:10:46 10° NE visible
8 Apr ? 21:44:44 10° W 21:49:49 40° NNW 21:54:53 10° NE visible
8 Apr ? 23:30:22 10° WNW 23:35:03 29° N 23:39:43 10° ENE visible
9 Apr ? 01:15:01 10° NW 01:20:11 46° NNE 01:25:20 10° E visible
9 Apr ? 02:59:10 10° NW 03:04:25 57° SW 03:09:38 10° SSE visible
9 Apr ? 04:45:37 10° W 04:47:25 12° WSW 04:49:14 10° SW visible
9 Apr ? 19:26:21 10° SSW 19:31:39 59° SE 19:36:57 10° NE visible
9 Apr ? 21:10:44 10° W 21:15:55 45° NNW 21:21:05 10° NE visible
9 Apr ? 22:56:23 10° WNW 23:01:04 29° N 23:05:43 10° ENE visible
10 Apr ? 00:41:12 10° NW 00:46:17 40° NNE 00:51:20 10° E visible
10 Apr ? 02:25:21 10° NW 02:30:42 72° SW 02:36:01 10° SE visible
10 Apr ? 04:10:48 10° W 04:13:54 16° WSW 04:17:01 10° SSW visible
10 Apr ? 20:36:45 10° WSW 20:42:02 52° NNW 20:47:18 10° NE visible
10 Apr ? 22:22:21 10° WNW 22:27:05 30° N 22:31:46 10° NE visible
11 Apr ? 00:07:23 10° NW 00:12:21 36° NNE 00:16:55 12° E visible
11 Apr ? 01:51:33 10° NW 01:56:56 88° SW 01:57:10 82° SSE visible
11 Apr ? 03:36:29 10° WNW 03:45:06 - S 03:37:28 14° W visible
11 Apr ? 20:02:48 10° WSW 20:08:10 61° NNW 20:13:31 10° NE visible
11 Apr ? 21:48:19 10° WNW 21:53:06 31° N 21:57:51 10° NE visible
11 Apr ? 23:33:32 10° NW 23:38:24 33° NNE 23:42:09 15° ENE visible
12 Apr ? 01:17:45 10° NW 01:22:35 69° NNW 01:22:35 69° NNW visible
12 Apr ? 03:02:21 10° WNW 03:03:02 13° WNW 03:03:02 13° WNW visible
12 Apr ? 19:28:56 10° WSW 19:34:20 73° NW 19:39:44 10° NE visible
12 Apr ? 21:14:16 10° WNW 21:19:07 33° NNW 21:23:58 10° NE visible
12 Apr ? 22:59:39 10° NW 23:04:27 31° N 23:08:29 13° ENE visible
13 Apr ? 00:43:58 10° NW 00:48:57 63° N 00:48:57 63° N visible
13 Apr ? 02:28:21 10° WNW 02:29:26 15° WNW 02:29:26 15° WNW visible
13 Apr ? 20:40:13 10° W 20:45:10 35° NNW 20:50:06 10° NE visible
13 Apr ? 22:25:44 10° NW 22:30:27 30° N 22:35:08 10° ENE visible
